[[{"header":{"parameterUnit":"m.s-1","parameterCategory":1,"la1":30.2991,"la2":30.254,"lo1":-89.0895,"lo2":-89.0444,"dy":0.0017,"dx":0.0017,"nx":28,"ny":28,"refTime":"2024-03-13T09:00:00:Z","depth":0,"parameterNumber":2,"parameterNumberName":"U-component_of_WINDS"},"data":[0,0,0,0,0,0,0,0,0,0,0,0,0,0,0,0,0,0,0,0,0,0,0,0,0,0,0,0,0,0,0,0,0,0,0,0,0,0,0,0,0,0,0,0,0,0,0,0,0,0,0,0,0,0,0,0,0,0,-5.9178,-5.9179,0,-5.9309,-5.9311,-5.9312,-5.9277,-5.9274,-5.9271,-5.9269,-5.9401,-5.9407,-5.9413,0,0,0,0,0,0,0,0,0,0,0,0,0,-5.8895,-5.89,-5.9177,-5.9179,-5.9181,-5.9309,-5.9311,-5.9313,-5.9277,-5.9274,-5.9271,-5.9268,-5.9399,-5.9406,-5.9413,0,0,0,0,0,0,0,0,0,0,0,0,0,-5.9021,-5.8902,-5.9177,-5.9179,-5.918,-5.9309,-5.9311,-5.9313,-5.9278,-5.9274,-5.927,-5.9266,-5.9397,-5.9405,-5.9414,-5.9548,0,0,-5.9441,-5.9445,0,0,0,0,0,0,0,0,-5.9014,-5.9031,-5.9177,-5.9179,-5.9181,-5.9273,-5.9259,-5.9392,-5.9279,-5.9241,-5.9269,-5.9264,-5.9361,-5.9373,-5.9406,-5.9554,-5.956,-5.9442,-5.9448,-5.9452,-5.9454,0,0,0,0,0,0,0,-5.9005,-5.9025,-5.9229,-5.9179,-5.9181,-5.9172,-5.9186,-5.9284,-5.9321,-5.9244,-5.9241,-5.9258,-5.9361,-5.9398,-5.9409,-5.9562,-5.9442,-5.945,-5.9455,-5.9459,-5.9829,-5.9833,0,0,0,0,0,0,-5.8995,-5.9018,-5.9225,-5.9233,-5.9086,-5.9181,-5.9196,-5.9247,-5.932,-5.9328,-5.9261,-5.9256,-5.9384,-5.9398,-5.9413,-5.9575,-5.9451,-5.946,-5.9465,-5.9824,-5.983,-5.9834,0,0,0,0,0,0,-5.8989,-5.9014,-5.922,-5.9126,-5.9151,-5.919,-5.9247,-5.9252,-5.9287,-5.9333,-5.9339,-5.9291,-5.9382,-5.9401,-5.9515,-5.9579,-5.9464,-5.9472,-5.9819,-5.9826,-5.9832,-5.9898,0,0,0,0,0,0,-5.8981,-5.9012,-5.9063,-5.9127,-5.9156,-5.932,-5.9251,-5.9257,-5.9303,-5.9298,-5.9363,-5.937,-5.938,-5.9502,-5.9524,-5.9589,-5.9479,-5.9813,-5.9822,-5.983,-5.9891,-5.9907,-5.992,0,0,0,0,0,-5.8971,-5.9076,-5.9066,-5.9091,-5.9221,-5.9324,-5.934,-5.935,-5.9309,-5.936,-5.939,-5.9368,-5.957,-5.9514,-5.9539,-5.9607,-5.9809,-5.9819,-5.9829,-5.9884,-5.9903,-5.992,0,0,0,0,0,0,-5.9016,-5.9084,-5.9073,-5.9202,-5.9258,-5.9317,-5.9382,-5.9371,-5.9438,-5.9429,-5.9439,-5.9454,-5.9571,-5.9601,-5.9539,-5.9742,-5.9683,-5.9699,-5.9716,-5.9735,-5.975,-5.9738,-5.9486,0,0,0,0,0,-5.9041,-5.9119,-5.9175,-5.9282,-5.9311,-5.9343,-5.9387,-5.9391,-5.9448,-5.9471,-5.9509,-5.9565,-5.9641,-5.9691,-5.9763,-5.9897,-5.991,-5.9956,-5.9971,-5.9983,-5.9995,-6.0067,-6.0088,-5.9867,-5.9867,-5.9867,0,0,-5.9093,-5.914,-5.9188,-5.9293,-5.9336,-5.9416,-5.9362,-5.9449,-5.9508,-5.9484,-5.9594,-5.9625,-5.9689,-5.9813,-5.987,-5.9842,-6.006,-5.9996,-6.0005,-6.001,-6.008,-6.0101,-6.0119,-5.9874,-5.9873,-5.9872,0,0,-5.9227,-5.9272,-5.9366,-5.9412,-5.948,-5.9501,-5.9524,-5.9587,-5.9607,-5.9718,-5.9702,-5.9774,-5.9904,-5.995,-5.9991,-6.0148,-6.013,-6.0172,-6.0247,-6.0318,-6.0335,-6.0351,-6.0405,-6.0425,-6.0185,-6.0185,-6.0185,0,-5.9282,-5.9403,-5.9416,-5.9505,-5.9552,-5.9537,-5.9633,-5.9676,-5.9764,-5.9796,-5.9764,-5.9929,-5.9971,-6.0106,-6.0145,-6.0179,-6.0205,-6.0162,-6.0332,-6.0348,-6.0362,-6.0414,-6.0435,-6.0189,-6.0189,-6.0188,-6.0188,0,-5.9466,-5.9551,-5.962,-5.9706,-5.9761,-5.9853,-5.988,-5.9934,-5.9935,-5.996,-6.0074,-6.0125,-6.0207,-6.0241,-6.0242,-6.0377,-6.0357,-6.033,-6.027,-6.0387,-6.0436,-6.0456,-6.0196,-6.0194,-6.0193,-6.0192,0,0,-5.9626,-5.9723,-5.9747,-5.9787,-5.9863,-5.9928,-6.0021,-6.0104,-6.0149,-6.0212,-6.0288,-6.0402,-6.0377,-6.0424,-6.043,-6.0493,-6.0613,-6.0457,-6.0459,-6.0482,-6.0764,-6.0782,-6.0804,-6.0604,-6.0608,-6.0611,-6.0758,0,-5.9765,-5.9927,-5.9944,-6.009,-6.0168,-6.0158,-6.0239,-6.0294,-6.0321,-6.0391,-6.0421,-6.05,-6.0463,-6.0491,-6.0553,-6.0585,-6.0669,-6.0576,-6.0673,-6.0677,-6.0653,-6.083,-6.0848,-6.0984,-6.0777,-6.0781,-6.0783,0,-5.9946,-6.0016,-6.0169,-6.0237,-6.027,-6.0342,-6.042,-6.0488,-6.0552,-6.0567,-6.0621,-6.0621,-6.0716,-6.0658,-6.0789,-6.0725,-6.0767,-6.079,-6.0796,-6.0801,-6.0733,-6.0837,-6.1028,-6.1047,-6.0814,-6.0811,-6.0809,0,-6.0044,-6.0177,-6.0286,-6.0321,-6.0402,-6.0453,-6.049,-6.055,-6.0599,-6.0668,-6.07,-6.078,-6.0822,-6.0883,-6.0904,-6.086,-6.1035,-6.0978,-6.1048,-6.1048,-6.108,-6.1077,-6.1277,-6.1115,-6.1115,-6.1115,-6.1114,0,-6.0194,-6.0287,-6.0331,-6.0397,-6.0502,-6.0523,-6.0626,-6.066,-6.0715,-6.0788,-6.0786,-6.0854,-6.088,-6.0953,-6.0971,-6.1076,-6.1096,-6.111,-6.1113,-6.1108,-6.1105,-6.1131,-6.1121,-6.112,-6.1119,-6.1118,-6.1117,0,-6.0317,-6.0351,-6.0469,-6.0539,-6.0559,-6.0633,-6.0692,-6.0756,-6.0785,-6.0878,-6.0901,-6.0945,-6.1031,-6.106,-6.1164,-6.1176,-6.1298,-6.1294,-6.1276,-6.1275,-6.1342,-6.1334,-6.1562,-6.1592,-6.1415,-6.1416,-6.1418,0,-6.0408,-6.048,-6.0559,-6.0609,-6.0648,-6.0728,-6.0779,-6.0804,-6.0857,-6.0937,-6.0992,-6.1078,-6.1147,-6.1286,-6.1327,-6.1407,-6.1403,-6.1478,-6.1414,-6.1407,-6.14,-6.1394,-6.14,-6.1487,-6.1489,-6.1491,-6.1492,0,-6.0565,-6.058,-6.0654,-6.0736,-6.0798,-6.0863,-6.0925,-6.0966,-6.1,-6.1061,-6.115,-6.1204,-6.1312,-6.1397,-6.148,-6.1517,-6.151,-6.1513,-6.1533,-6.1525,-6.151,-6.1516,-6.1303,-6.1506,-6.1504,-6.1503,-6.1503,-6.1502,-6.0673,-6.0737,-6.0803,-6.0887,-6.0938,-6.0998,-6.1062,-6.11,-6.1175,-6.1265,-6.1277,-6.1372,-6.1437,-6.1547,-6.1589,-6.1664,-6.1643,-6.1672,-6.1679,-6.1685,-6.1688,-6.1503,-6.168,-6.1679,-6.1679,-6.1679,-6.1679,0,-6.0827,-6.0871,-6.0948,-6.1037,-6.1104,-6.1096,-6.1166,-6.1221,-6.1306,-6.1368,-6.1438,-6.1541,-6.1624,-6.1674,-6.1758,-6.1809,-6.1807,-6.1829,-6.1823,-6.1832,-6.1704,-6.1677,-6.1829,-6.1829,-6.1829,-6.1829,-6.1829,-6.1829,-6.0914,-6.1022,-6.1045,-6.1178,-6.1221,-6.1316,-6.1356,-6.1412,-6.1461,-6.1577,-6.1647,-6.168,-6.1738,-6.1826,-6.1903,-6.1916,-6.1945,-6.1969,-6.1978,-6.1857,-6.1841,-6.1826,-6.18,-6.1976,-6.1976,-6.21,-6.2101,-6.2102]},{"header":{"parameterUnit":"m.s-1","parameterCategory":1,"la1":30.2991,"la2":30.254,"lo1":-89.0895,"lo2":-89.0444,"dy":0.0017,"dx":0.0017,"nx":28,"ny":28,"refTime":"2024-03-13T09:00:00:Z","depth":0,"parameterNumber":3,"parameterNumberName":"V-component_of_WINDS"},"data":[0,0,0,0,0,0,0,0,0,0,0,0,0,0,0,0,0,0,0,0,0,0,0,0,0,0,0,0,0,0,0,0,0,0,0,0,0,0,0,0,0,0,0,0,0,0,0,0,0,0,0,0,0,0,0,0,0,0,2.0054,2.0055,0,2.0124,2.0125,2.0125,2.0176,2.0176,2.0176,2.0177,2.0244,2.0246,2.0247,0,0,0,0,0,0,0,0,0,0,0,0,0,1.9963,1.9964,2.0054,2.0055,2.0056,2.0124,2.0125,2.0126,2.0176,2.0176,2.0177,2.0177,2.0244,2.0245,2.0247,0,0,0,0,0,0,0,0,0,0,0,0,0,2.0014,1.9965,2.0054,2.0089,2.0093,2.0124,2.0125,2.0126,2.0175,2.0176,2.0177,2.0177,2.0243,2.0245,2.0247,2.0247,0,0,2.0254,2.0255,0,0,0,0,0,0,0,0,2.0011,2.0018,2.0083,2.0087,2.0091,2.0142,2.0117,2.0166,2.0175,2.0144,2.0177,2.0178,2.0209,2.0214,2.0226,2.0251,2.0253,2.0254,2.0255,2.0256,2.0257,0,0,0,0,0,0,0,2.0008,2.0015,2.0082,2.0084,2.0089,2.0101,2.0109,2.0127,2.0172,2.0147,2.0151,2.0158,2.0212,2.0224,2.0228,2.0254,2.0254,2.0256,2.0257,2.0258,2.0286,2.0286,0,0,0,0,0,0,1.9999,2.0012,2.0079,2.0084,2.0052,2.0102,2.0111,2.0125,2.0172,2.018,2.0158,2.016,2.022,2.0225,2.023,2.0236,2.0256,2.0258,2.0259,2.0287,2.0286,2.0286,0,0,0,0,0,0,1.9997,2.0005,2.0077,2.0049,2.0059,2.0103,2.0118,2.0126,2.0138,2.018,2.0188,2.0162,2.022,2.0227,2.0244,2.0239,2.0259,2.0261,2.0287,2.0287,2.0286,2.0245,0,0,0,0,0,0,1.9994,2.0004,2.0004,2.0048,2.006,2.0089,2.0118,2.0127,2.0142,2.0146,2.0186,2.0194,2.0222,2.0241,2.0246,2.0242,2.0262,2.0288,2.0287,2.0286,2.0247,2.0243,2.024,0,0,0,0,0,1.9991,1.9988,2.0004,2.0012,2.0062,2.0089,2.0095,2.0129,2.0141,2.0142,2.017,2.0192,2.0239,2.0242,2.0248,2.0245,2.0289,2.0287,2.0286,2.0249,2.0244,2.024,0,0,0,0,0,0,1.9939,1.9994,2.0012,2.0024,2.0052,2.0097,2.0099,2.0122,2.0145,2.0148,2.0187,2.0196,2.0209,2.0228,2.0231,2.0249,2.0266,2.0267,2.0236,2.0232,2.0228,2.0223,2.0264,0,0,0,0,0,1.993,1.9948,1.9994,2.0,2.0014,2.0054,2.0067,2.0091,2.012,2.0131,2.016,2.0187,2.0208,2.0221,2.0242,2.0251,2.0261,2.0252,2.0248,2.0245,2.0244,2.0253,2.025,2.0282,2.0282,2.0282,0,0,1.9909,1.9942,1.995,1.9991,2.0015,2.0033,2.0063,2.008,2.0094,2.0133,2.0152,2.0174,2.0207,2.022,2.0228,2.0237,2.0238,2.0244,2.0241,2.0242,2.0252,2.0249,2.0246,2.0281,2.0282,2.0282,0,0,1.9881,1.9907,1.9917,1.9941,1.9979,2.0006,2.0008,2.0052,2.0069,2.0088,2.012,2.0136,2.0171,2.0194,2.021,2.0195,2.0217,2.0201,2.0181,2.0189,2.0187,2.0185,2.0181,2.0179,2.0201,2.0201,2.0201,0,1.9851,1.988,1.9918,1.9934,1.9952,1.9992,2.0002,2.0024,2.0065,2.0077,2.0087,2.0134,2.0159,2.0179,2.0177,2.0188,2.0192,2.0196,2.0184,2.0183,2.0181,2.0178,2.0177,2.0199,2.0199,2.0199,2.0199,0,1.9842,1.9861,1.9864,1.9907,1.9925,1.9938,1.9978,1.9992,2.0015,2.0042,2.0062,2.0094,2.0124,2.0131,2.0152,2.0155,2.016,2.0177,2.0195,2.0176,2.0174,2.0173,2.0195,2.0196,2.0197,2.0197,0,0,1.9781,1.9847,1.9848,1.9869,1.9915,1.993,1.9946,1.9978,1.999,2.0018,2.0032,2.0063,2.008,2.0098,2.0123,2.013,2.0119,2.0146,2.0148,2.0141,2.0127,2.0114,2.0112,2.0134,2.0134,2.0134,2.0124,0,1.9761,1.9793,1.9829,1.9848,1.9868,1.9908,1.9922,1.9952,1.9978,1.9998,2.0026,2.0048,2.0068,2.008,2.0089,2.0118,2.0117,2.012,2.0148,2.0149,2.0139,2.0111,2.0097,2.0086,2.0124,2.0123,2.0123,0,1.9741,1.9771,1.9792,1.984,1.985,1.9862,1.9895,1.9914,1.9949,1.9968,1.9991,2.0018,2.0037,2.0054,2.0081,2.0083,2.0097,2.0113,2.0114,2.0118,2.0135,2.0115,2.0083,2.0082,2.0122,2.0122,2.0122,0,1.9697,1.9742,1.9762,1.9778,1.9833,1.9841,1.9864,1.9901,1.9918,1.9947,1.996,1.9989,2.0006,2.0029,2.0064,2.0072,2.0088,2.0107,2.0105,2.0104,2.0106,2.0105,2.0077,2.0114,2.0114,2.0114,2.0114,0,1.9671,1.9683,1.9743,1.9755,1.977,1.9813,1.9826,1.9853,1.9885,1.9904,1.9939,1.9955,2.0001,2.0022,2.005,2.0069,2.0076,2.0092,2.0099,2.0089,2.0087,2.0099,2.0101,2.0113,2.0113,2.0113,2.0114,0,1.9624,1.9664,1.9689,1.9741,1.9754,1.9763,1.9807,1.9821,1.985,1.9873,1.9881,1.9926,1.9954,1.9992,2.003,2.0049,2.0065,2.0076,2.0054,2.0058,2.0054,2.0054,2.0033,2.0033,2.0068,2.0068,2.0068,0,1.9605,1.9616,1.967,1.9686,1.9709,1.9733,1.9753,1.9796,1.9814,1.9857,1.9866,1.9897,1.9924,1.9966,2.0002,2.0032,2.0045,2.0035,2.0049,2.004,2.0046,2.0046,2.0048,2.0032,2.0031,2.0031,2.003,0,1.9568,1.9589,1.9616,1.9651,1.9674,1.9703,1.9734,1.9745,1.9794,1.9813,1.9843,1.9865,1.9906,1.9936,1.9972,1.9996,2.0021,2.0026,2.0027,2.0017,2.0004,2.0013,2.0045,2.0026,2.0026,2.0027,2.0027,2.0027,1.9535,1.9548,1.959,1.962,1.9648,1.9677,1.9693,1.9726,1.9753,1.9791,1.9815,1.9844,1.9882,1.9933,1.9955,1.9979,1.9989,1.999,1.9991,1.9991,1.9988,2.0001,1.9985,1.9986,1.9986,1.9986,1.9986,0,1.9502,1.9531,1.9559,1.9602,1.9627,1.9651,1.9687,1.9706,1.9732,1.9765,1.9793,1.9828,1.9859,1.9899,1.9933,1.9944,1.9957,1.9951,1.9951,1.9956,1.9976,1.9973,1.9941,1.9941,1.9941,1.9941,1.9941,1.9941,1.9487,1.9511,1.9536,1.9575,1.9604,1.9635,1.9654,1.9681,1.9709,1.9748,1.9775,1.9802,1.9838,1.9875,1.9905,1.9916,1.9927,1.9918,1.9933,1.9951,1.9955,1.9958,1.9955,1.992,1.992,1.9911,1.9911,1.9911]}]]